SCP
0 -0 -0 -0 0 0 0 0 0 0 0 0 0 -0 -0 -0 -0 -0 -0 -0 -0 -0 -0 -0 -0 -0 -0 -0 -0 0 0 0 -0 0 0 0 0 0
0 -0 -0 -0 -0 -0 -0 0 0 0 0 0 0 0 -0 -0 -0 -0 -0 -0 -0 -0 -0 -0 -0 -0 -0 -0 -0 -0 -0 -0 -0 -0 0 0 0 0
0 -0 0 -0 -0 -0 -0 0 0 0 0 0 0 -0 0 0 -0 0 0 0 -0 -0 -0 -0 -0 -0 -0 -0 -0 -0 -0 -0 -0 -0 -0 0 0 0
-0 -0 0 -0 -0 -0 0 0 0 0 0 -0 0 0 0 0 0 0 0 0 0 -0 -0 -0 -0 -0 -0 -0 -0 -0 -0 -0 -0 -0 -0 -0 -0 -0
0 0 0 -0 -0 -0 -0 -0 0 0 0 0 0 0 1 1 1 0 0 0 0 0 -0 -0 -0 -0 -0 -0 -0 -0 -0 -0 -0 -0 -0 -0 -0 -0
0 0 0 0 0 0 0 0 0 0 0 0 0 0 0 1 1 0 0 1 0 0 0 0 0 0 0 0 -0 -0 -0 -0 -0 -0 -0 -0 -0 -0
0 1 0 0 0 0 0 0 0 0 0 0 0 0 0 1 1 1 0 0 0 0 0 0 0 0 0 0 0 -0 -0 -0 -0 -0 -0 0 0 -0
0 0 0 -0 0 -0 0 0 0 0 0 0 0 0 0 0 1 1 1 1 0 0 0 0 0 0 0 0 0 0 0 0 0 0 0 0 0 0
0 0 -0 -0 0 0 0 0 0 0 0 0 0 0 0 0 0 1 1 1 1 1 1 0 0 0 0 0 0 0 0 0 0 0 0 0 0 0
0 0 0 0 0 0 0 0 0 0 0 0 0 0 0 0 0 0 1 1 0 0 1 0 0 0 0 0 0 0 0 0 0 0 0 0 0 0
0 0 0 0 0 0 0 0 0 0 0 0 0 0 0 0 1 1 1 1 1 1 1 0 0 0 0 0 0 0 0 0 0 0 0 0 0 0
0 0 0 0 0 0 0 0 0 0 1 1 0 0 -0 0 0 0 1 1 1 0 1 1 0 0 0 0 0 0 0 0 0 0 0 0 0 0
0 0 0 0 0 0 0 0 0 0 0 0 1 1 0 0 0 1 1 0 1 1 1 1 1 1 1 0 0 0 0 0 0 0 0 0 0 0
0 0 0 0 0 0 0 0 0 0 0 0 0 0 0 1 1 1 1 1 1 1 1 2 1 1 1 1 0 0 0 0 0 0 0 0 0 0
0 0 0 0 0 0 0 0 0 0 0 0 0 0 0 0 1 1 1 2 2 2 1 2 2 1 1 0 1 0 0 0 0 0 0 0 0 0
0 0 0 0 0 0 0 0 0 0 0 0 0 0 0 0 0 1 0 0 1 1 1 2 1 1 1 1 1 0 0 0 0 0 0 0 0 0
0 0 0 0 0 0 0 0 0 0 0 0 0 0 0 0 0 0 0 0 0 0 0 0 1 1 1 1 1 0 0 0 0 0 0 0 0 0
0 0 0 0 0 0 0 0 0 0 0 0 0 0 0 0 0 0 0 1 1 1 0 1 1 0 1 0 0 1 0 0 0 0 0 0 0 0
0 0 0 0 0 0 0 0 0 0 0 0 0 0 0 0 0 0 0 0 0 0 0 0 1 1 1 1 1 0 1 0 0 0 0 0 0 0
0 0 0 0 0 0 0 -0 -0 0 0 0 0 0 0 0 0 0 0 0 0 0 0 1 1 0 0 0 0 0 0 0 0 0 0 0 0 0
0 0 0 0 0 0 0 0 0 0 0 -0 0 0 0 -0 0 0 0 0 0 0 0 0 1 1 1 0 0 0 0 0 0 0 0 0 0 0
0 0 0 0 0 0 0 0 0 0 0 -0 0 0 0 0 0 0 0 -0 0 0 0 0 0 0 1 1 0 0 0 0 0 0 0 0 0 0
0 0 0 0 0 0 0 0 0 0 0 0 0 0 0 0 0 0 0 0 0 0 -0 0 0 0 0 0 0 0 0 0 0 0 0 0 0 0
Wind_Speed_500mb
34 42 49 45 42 36 43 28 27 21 15 49 46 42 49 50 48 36 38 32 31 34 35 35 35 34 34 32 31 29 29 29 32 41 46 46 46 45
40 39 48 52 49 50 43 37 34 29 27 32 15 38 43 52 53 48 33 30 32 35 38 37 37 37 39 37 35 34 31 29 30 33 37 42 46 49
37 44 45 49 55 54 50 42 42 39 42 42 34 30 36 61 50 56 39 38 38 33 38 39 40 37 40 42 41 39 36 32 30 32 36 40 46 51
28 36 41 44 44 48 54 45 45 43 45 55 47 33 21 42 56 53 48 45 39 37 41 42 41 42 41 41 41 41 40 38 35 33 34 38 41 44
33 37 36 42 51 49 55 59 53 48 51 50 55 45 29 49 47 39 44 46 47 44 41 36 38 43 41 43 43 44 44 43 41 38 36 36 38 39
42 41 41 40 47 53 49 54 61 64 50 50 59 54 49 46 49 54 50 56 55 51 51 47 51 51 49 46 47 49 50 50 48 45 41 38 36 37
39 50 55 52 51 52 58 64 60 57 59 64 64 61 63 62 61 57 63 60 56 61 63 61 58 62 62 62 61 58 58 58 57 54 48 43 38 36
48 58 60 60 54 62 60 57 55 55 67 68 76 82 76 73 70 61 61 69 65 56 54 53 59 70 65 69 64 58 52 58 65 63 57 50 44 39
53 52 60 66 67 55 49 60 61 68 62 71 73 68 81 82 76 79 68 71 75 63 60 58 57 60 59 66 62 56 54 41 49 65 64 58 52 44
59 69 77 78 77 69 72 68 61 61 59 54 66 73 79 75 78 83 83 67 67 75 70 68 61 68 58 59 56 50 47 45 39 42 63 63 59 51
45 53 62 65 67 66 66 66 66 70 67 65 68 68 75 83 82 76 84 75 71 79 79 75 73 70 63 61 59 56 49 44 42 39 35 46 56 56
41 43 46 51 59 49 47 53 62 60 61 65 76 76 73 77 96 97 92 97 96 81 89 82 81 77 71 73 68 62 57 54 53 50 48 44 43 52
42 36 29 29 32 36 41 47 54 57 61 61 62 67 75 83 87 101 105 102 95 99 87 80 92 93 85 72 68 76 70 68 67 66 63 58 53 57
44 42 37 44 49 53 58 63 66 68 72 68 66 74 78 92 100 98 99 103 108 105 98 91 96 86 84 84 93 87 65 72 69 66 65 62 59 62
35 41 48 46 53 52 55 53 55 64 67 71 82 78 71 69 69 89 96 95 97 100 102 97 94 94 87 84 85 87 86 86 72 68 67 67 65 66
46 50 53 57 59 58 61 66 63 65 63 60 63 73 79 74 72 87 90 99 86 89 85 84 90 94 98 96 96 91 87 90 77 76 75 67 65 66
36 34 36 42 51 58 63 60 56 59 67 67 62 64 67 71 69 66 71 68 80 83 78 84 79 81 82 87 98 84 79 80 74 66 66 64 63 62
31 41 33 32 37 42 44 44 51 55 56 60 66 60 63 63 67 65 64 74 84 87 89 81 79 63 63 80 75 74 73 79 76 75 77 72 68 66
29 37 38 38 40 38 39 42 47 51 53 47 48 52 57 58 54 63 73 85 85 78 52 62 66 74 67 60 67 65 66 69 77 83 86 85 86 76
21 26 29 30 30 37 40 44 42 45 46 47 42 42 46 46 50 56 64 83 93 101 92 71 78 83 84 86 84 83 83 73 80 83 82 87 86 72
37 37 37 37 38 38 36 40 40 39 41 46 46 42 39 39 44 40 47 54 88 93 95 87 86 75 79 78 73 64 62 63 59 62 60 68 81 86
40 43 43 39 38 40 41 36 38 40 43 48 46 42 41 42 38 46 45 53 52 25 50 71 73 66 61 61 64 53 60 63 60 57 58 61 68 69
46 45 45 47 42 41 42 45 43 45 46 50 52 44 46 44 43 39 39 38 46 57 67 71 13 20 32 45 43 56 58 57 64 65 64 59 64 69
Wind_Direction_500mb
237 230 229 220 226 237 227 247 238 220 219 227 236 242 244 239 231 223 221 229 231 239 246 241 237 234 229 229 232 232 238 242 239 238 240 242 244 246
232 235 233 228 228 234 240 239 239 249 260 226 249 248 257 230 226 228 227 227 237 240 239 241 239 239 232 232 233 233 236 240 246 244 244 245 247 247
241 237 240 236 234 232 235 238 244 247 254 253 257 276 249 228 222 223 237 226 230 236 233 238 236 239 235 235 235 233 236 240 246 249 252 253 253 250
260 253 240 243 242 241 237 239 241 244 255 258 254 271 267 235 228 223 230 227 240 235 240 239 239 239 239 239 240 240 241 243 247 254 259 260 260 259
269 265 257 251 244 244 238 238 239 244 247 259 255 261 263 230 223 229 233 249 249 241 242 247 249 246 247 247 247 247 246 247 250 254 259 263 263 263
274 270 267 265 258 250 250 246 243 244 250 257 259 257 244 223 236 243 237 230 248 248 240 243 249 249 243 250 253 255 254 253 253 254 258 264 265 266
268 272 272 270 271 264 255 248 245 245 248 248 252 254 254 237 233 243 244 246 248 247 247 246 247 248 248 246 247 249 252 255 255 256 257 260 265 264
241 249 261 274 269 265 267 268 261 250 247 250 251 256 243 238 238 245 240 241 242 240 239 250 252 249 249 249 255 259 263 262 259 256 257 258 260 262
266 249 261 256 265 270 264 265 265 266 264 261 257 251 244 241 242 242 244 239 249 255 250 253 251 254 257 256 254 255 253 261 258 251 252 255 256 258
261 260 262 268 272 272 277 275 268 264 267 268 260 256 250 249 247 246 248 249 250 251 248 248 253 254 258 261 259 257 256 257 264 254 246 249 252 254
270 263 263 267 268 271 272 273 272 275 276 270 266 267 257 256 253 246 243 245 243 240 240 245 244 253 255 260 262 258 258 258 259 258 253 246 247 250
295 287 279 271 270 273 277 277 276 277 283 285 278 272 263 256 253 250 248 243 243 247 243 238 240 246 250 255 258 258 256 254 255 256 254 254 256 248
293 299 280 275 273 269 265 266 268 274 277 284 277 271 269 266 259 252 248 247 249 246 244 243 247 248 248 252 255 254 252 252 250 246 241 241 249 255
276 274 269 263 266 267 272 275 279 280 281 278 277 268 279 283 272 254 250 248 245 248 251 247 250 252 251 249 249 250 248 245 244 245 242 247 249 253
278 281 274 272 279 285 294 286 292 292 296 279 272 276 284 289 282 266 256 252 245 241 245 247 249 253 250 250 249 249 242 243 238 242 240 242 248 253
286 285 288 285 287 290 291 295 297 301 304 299 290 289 290 285 286 263 253 238 240 239 239 246 247 248 252 251 252 248 248 243 245 246 244 246 254 257
324 320 307 298 294 293 294 298 305 307 305 297 295 295 299 287 285 264 250 236 239 238 241 240 245 247 251 253 251 248 250 249 245 238 241 243 255 260
356 359 351 345 339 333 327 319 312 310 305 298 296 298 296 295 278 271 257 250 249 242 239 236 239 230 246 251 240 246 249 245 241 242 243 251 257 259
356 1 1 355 348 336 329 327 322 322 306 310 311 306 302 298 295 272 262 260 253 245 247 234 240 226 229 239 243 249 249 244 242 246 248 252 258 257
0 343 339 338 341 335 335 339 329 335 339 340 331 323 315 298 298 300 285 269 262 256 242 243 238 243 247 248 250 254 256 250 245 246 254 259 263 257
339 331 327 322 323 321 321 326 327 339 338 338 341 336 332 316 302 295 307 273 258 257 246 243 250 249 251 253 247 248 248 251 250 250 249 249 248 253
0 356 349 333 325 325 331 324 317 319 328 325 326 334 330 324 317 314 292 299 285 315 252 243 251 241 235 236 243 245 249 251 253 249 246 244 245 237
6 6 7 4 356 342 326 320 323 321 318 315 316 311 311 319 325 322 317 314 296 277 293 303 326 230 249 249 252 251 257 253 257 255 252 245 243 242
Wind_Speed_850mb
34 42 49 45 42 36 43 28 27 21 15 49 46 42 49 50 48 36 38 32 31 34 35 35 35 34 34 32 31 29 29 29 32 41 46 46 46 45
40 39 48 52 49 50 43 37 34 29 27 32 15 38 43 52 53 48 33 30 32 35 38 37 37 37 39 37 35 34 31 29 30 33 37 42 46 49
37 44 45 49 55 54 50 42 42 39 42 42 34 30 36 61 50 56 39 38 38 33 38 39 40 37 40 42 41 39 36 32 30 32 36 40 46 51
28 36 41 44 44 48 54 45 45 43 45 55 47 33 21 42 56 53 48 45 39 37 41 42 41 42 41 41 41 41 40 38 35 33 34 38 41 44
33 37 36 42 51 49 55 59 53 48 51 50 55 45 29 49 47 39 44 46 47 44 41 36 38 43 41 43 43 44 44 43 41 38 36 36 38 39
42 41 41 40 47 53 49 54 61 64 50 50 59 54 49 46 49 54 50 56 55 51 51 47 51 51 49 46 47 49 50 50 48 45 41 38 36 37
39 50 55 52 51 52 58 64 60 57 59 64 64 61 63 62 61 57 63 60 56 61 63 61 58 62 62 62 61 58 58 58 57 54 48 43 38 36
48 58 60 60 54 62 60 57 55 55 67 68 76 82 76 73 70 61 61 69 65 56 54 53 59 70 65 69 64 58 52 58 65 63 57 50 44 39
53 52 60 66 67 55 49 60 61 68 62 71 73 68 81 82 76 79 68 71 75 63 60 58 57 60 59 66 62 56 54 41 49 65 64 58 52 44
59 69 77 78 77 69 72 68 61 61 59 54 66 73 79 75 78 83 83 67 67 75 70 68 61 68 58 59 56 50 47 45 39 42 63 63 59 51
45 53 62 65 67 66 66 66 66 70 67 65 68 68 75 83 82 76 84 75 71 79 79 75 73 70 63 61 59 56 49 44 42 39 35 46 56 56
41 43 46 51 59 49 47 53 62 60 61 65 76 76 73 77 96 97 92 97 96 81 89 82 81 77 71 73 68 62 57 54 53 50 48 44 43 52
42 36 29 29 32 36 41 47 54 57 61 61 62 67 75 83 87 101 105 102 95 99 87 80 92 93 85 72 68 76 70 68 67 66 63 58 53 57
44 42 37 44 49 53 58 63 66 68 72 68 66 74 78 92 100 98 99 103 108 105 98 91 96 86 84 84 93 87 65 72 69 66 65 62 59 62
35 41 48 46 53 52 55 53 55 64 67 71 82 78 71 69 69 89 96 95 97 100 102 97 94 94 87 84 85 87 86 86 72 68 67 67 65 66
46 50 53 57 59 58 61 66 63 65 63 60 63 73 79 74 72 87 90 99 86 89 85 84 90 94 98 96 96 91 87 90 77 76 75 67 65 66
36 34 36 42 51 58 63 60 56 59 67 67 62 64 67 71 69 66 71 68 80 83 78 84 79 81 82 87 98 84 79 80 74 66 66 64 63 62
31 41 33 32 37 42 44 44 51 55 56 60 66 60 63 63 67 65 64 74 84 87 89 81 79 63 63 80 75 74 73 79 76 75 77 72 68 66
29 37 38 38 40 38 39 42 47 51 53 47 48 52 57 58 54 63 73 85 85 78 52 62 66 74 67 60 67 65 66 69 77 83 86 85 86 76
21 26 29 30 30 37 40 44 42 45 46 47 42 42 46 46 50 56 64 83 93 101 92 71 78 83 84 86 84 83 83 73 80 83 82 87 86 72
37 37 37 37 38 38 36 40 40 39 41 46 46 42 39 39 44 40 47 54 88 93 95 87 86 75 79 78 73 64 62 63 59 62 60 68 81 86
40 43 43 39 38 40 41 36 38 40 43 48 46 42 41 42 38 46 45 53 52 25 50 71 73 66 61 61 64 53 60 63 60 57 58 61 68 69
46 45 45 47 42 41 42 45 43 45 46 50 52 44 46 44 43 39 39 38 46 57 67 71 13 20 32 45 43 56 58 57 64 65 64 59 64 69
Wind_Direction_850mb
237 230 229 220 226 237 227 247 238 220 219 227 236 242 244 239 231 223 221 229 231 239 246 241 237 234 229 229 232 232 238 242 239 238 240 242 244 246
232 235 233 228 228 234 240 239 239 249 260 226 249 248 257 230 226 228 227 227 237 240 239 241 239 239 232 232 233 233 236 240 246 244 244 245 247 247
241 237 240 236 234 232 235 238 244 247 254 253 257 276 249 228 222 223 237 226 230 236 233 238 236 239 235 235 235 233 236 240 246 249 252 253 253 250
260 253 240 243 242 241 237 239 241 244 255 258 254 271 267 235 228 223 230 227 240 235 240 239 239 239 239 239 240 240 241 243 247 254 259 260 260 259
269 265 257 251 244 244 238 238 239 244 247 259 255 261 263 230 223 229 233 249 249 241 242 247 249 246 247 247 247 247 246 247 250 254 259 263 263 263
274 270 267 265 258 250 250 246 243 244 250 257 259 257 244 223 236 243 237 230 248 248 240 243 249 249 243 250 253 255 254 253 253 254 258 264 265 266
268 272 272 270 271 264 255 248 245 245 248 248 252 254 254 237 233 243 244 246 248 247 247 246 247 248 248 246 247 249 252 255 255 256 257 260 265 264
241 249 261 274 269 265 267 268 261 250 247 250 251 256 243 238 238 245 240 241 242 240 239 250 252 249 249 249 255 259 263 262 259 256 257 258 260 262
266 249 261 256 265 270 264 265 265 266 264 261 257 251 244 241 242 242 244 239 249 255 250 253 251 254 257 256 254 255 253 261 258 251 252 255 256 258
261 260 262 268 272 272 277 275 268 264 267 268 260 256 250 249 247 246 248 249 250 251 248 248 253 254 258 261 259 257 256 257 264 254 246 249 252 254
270 263 263 267 268 271 272 273 272 275 276 270 266 267 257 256 253 246 243 245 243 240 240 245 244 253 255 260 262 258 258 258 259 258 253 246 247 250
295 287 279 271 270 273 277 277 276 277 283 285 278 272 263 256 253 250 248 243 243 247 243 238 240 246 250 255 258 258 256 254 255 256 254 254 256 248
293 299 280 275 273 269 265 266 268 274 277 284 277 271 269 266 259 252 248 247 249 246 244 243 247 248 248 252 255 254 252 252 250 246 241 241 249 255
276 274 269 263 266 267 272 275 279 280 281 278 277 268 279 283 272 254 250 248 245 248 251 247 250 252 251 249 249 250 248 245 244 245 242 247 249 253
278 281 274 272 279 285 294 286 292 292 296 279 272 276 284 289 282 266 256 252 245 241 245 247 249 253 250 250 249 249 242 243 238 242 240 242 248 253
286 285 288 285 287 290 291 295 297 301 304 299 290 289 290 285 286 263 253 238 240 239 239 246 247 248 252 251 252 248 248 243 245 246 244 246 254 257
324 320 307 298 294 293 294 298 305 307 305 297 295 295 299 287 285 264 250 236 239 238 241 240 245 247 251 253 251 248 250 249 245 238 241 243 255 260
356 359 351 345 339 333 327 319 312 310 305 298 296 298 296 295 278 271 257 250 249 242 239 236 239 230 246 251 240 246 249 245 241 242 243 251 257 259
356 1 1 355 348 336 329 327 322 322 306 310 311 306 302 298 295 272 262 260 253 245 247 234 240 226 229 239 243 249 249 244 242 246 248 252 258 257
0 343 339 338 341 335 335 339 329 335 339 340 331 323 315 298 298 300 285 269 262 256 242 243 238 243 247 248 250 254 256 250 245 246 254 259 263 257
339 331 327 322 323 321 321 326 327 339 338 338 341 336 332 316 302 295 307 273 258 257 246 243 250 249 251 253 247 248 248 251 250 250 249 249 248 253
0 356 349 333 325 325 331 324 317 319 328 325 326 334 330 324 317 314 292 299 285 315 252 243 251 241 235 236 243 245 249 251 253 249 246 244 245 237
6 6 7 4 356 342 326 320 323 321 318 315 316 311 311 319 325 322 317 314 296 277 293 303 326 230 249 249 252 251 257 253 257 255 252 245 243 242